Colorado City, AZ

3:48 AM MST on September 21, 2017 (GMT -0700)
Colorado City Municipal

Weather History for KAZC - December, 2013

Change the Weather History Date:

Monday, December 9, 2013

  Actual Average (KSGU) Record (KSGU)
Temperature  
Mean Temperature 3 °F -  
Max Temperature 25 °F 55 °F 67 °F (1962)
Min Temperature -19 °F 29 °F 1 °F (2013)
Degree Days  
Heating Degree Days 62    
Moisture  
Dew Point -5 °F    
Average Humidity 77    
Maximum Humidity 88    
Minimum Humidity 53    
Precipitation  
Precipitation 0.00 in - - ()
Sea Level Pressure  
Sea Level Pressure 30.35 in    
Wind  
Wind Speed 3 mph (ESE)    
Max Wind Speed 8 mph    
Max Gust Speed -    
Visibility 10 miles    
Events      
Averages and records for this station are not official NWS values.
T = Trace of Precipitation, MM = Missing Value Source: NWS Daily Summary

Daily Weather History Graph

Daily Weather History Graph

Search for Another Location

Airport or City:

Trip Planner

Search our weather history database for the weather conditions in past years. The results will help you decide how hot, cold, wet, or windy it might be!

Date:

Astronomy

Dec. 09, 2013 Rise Set
Actual Time 7:33 AM MST 5:15 PM MST
Civil Twilight 7:04 AM MST 5:44 PM MST
Nautical Twilight 6:32 AM MST 6:16 PM MST
Astronomical Twilight 6:01 AM MST 6:48 PM MST
Moon 12:37 PM MST (12/9) 12:01 AM MST (12/9)
Length of Visible Light 10h 39m
Length of Day
9h 41m
First Quarter, 52% of the Moon is Illuminated
Dec 9
First Quarter
Dec 17
Full
Dec 25
Last Quarter
Jan 1
New
Jan 7
First Quarter

Hourly Weather History & Observations

Time (MST) Temp. Windchill Dew Point Humidity Pressure Visibility Wind Dir Wind Speed Gust Speed Precip Events Conditions
12:15 AM -12.6 °F - -16.8 °F 82% 30.16 in 10.0 mi Calm Calm - N/A   Clear
12:35 AM -13.0 °F -25.1 °F -17.1 °F 82% 30.16 in 10.0 mi ESE 4.6 mph - N/A   Clear
12:55 AM -14.6 °F -27.0 °F -18.9 °F 81% 30.15 in 10.0 mi SSE 4.6 mph - N/A   Clear
1:15 AM -13.9 °F -28.1 °F -18.0 °F 82% 30.16 in 10.0 mi ESE 5.8 mph - N/A   Clear
1:35 AM -13.7 °F -27.8 °F -17.9 °F 82% 30.15 in 10.0 mi SE 5.8 mph - N/A   Clear
1:55 AM -13.5 °F -25.7 °F -17.7 °F 82% 30.16 in 10.0 mi ESE 4.6 mph - N/A   Scattered Clouds
2:15 AM -11.4 °F - -15.2 °F 83% 30.17 in 10.0 mi Calm Calm - N/A   Scattered Clouds
2:35 AM -14.1 °F -23.9 °F -18.6 °F 80% 30.17 in 10.0 mi ESE 3.5 mph - N/A   Clear
2:55 AM -15.3 °F -29.8 °F -19.7 °F 81% 30.17 in 10.0 mi SE 5.8 mph - N/A   Clear
3:15 AM -15.5 °F -25.6 °F -20.4 °F 79% 30.19 in 10.0 mi SSE 3.5 mph - N/A   Clear
3:35 AM -16.2 °F -30.8 °F -20.7 °F 80% 30.19 in 10.0 mi ESE 5.8 mph - N/A   Clear
3:55 AM -12.6 °F - -16.1 °F 85% 30.19 in 10.0 mi Calm Calm - N/A   Clear
4:15 AM -13.7 °F -23.5 °F -18.4 °F 80% 30.21 in 10.0 mi South 3.5 mph - N/A   Clear
4:35 AM -16.1 °F -28.6 °F -20.6 °F 80% 30.21 in 10.0 mi East 4.6 mph - N/A   Clear
4:55 AM -13.9 °F - -17.5 °F 84% 30.23 in 10.0 mi Calm Calm - N/A   Clear
5:15 AM -14.3 °F - -18.8 °F 80% 30.23 in 10.0 mi Calm Calm - N/A   Clear
5:35 AM -15.2 °F - -19.7 °F 80% 30.24 in 10.0 mi Calm Calm - N/A   Clear
5:55 AM -15.5 °F -30.0 °F -19.7 °F 82% 30.25 in 10.0 mi SE 5.8 mph - N/A   Clear
6:15 AM -17.3 °F -27.6 °F -22.0 °F 79% 30.26 in 10.0 mi South 3.5 mph - N/A   Clear
6:35 AM -16.6 °F -26.8 °F -20.9 °F 81% 30.27 in 10.0 mi NE 3.5 mph - N/A   Clear
6:55 AM -18.2 °F - -23.6 °F 76% 30.29 in 10.0 mi Calm Calm - N/A   Clear
7:15 AM -19.3 °F -36.2 °F -24.5 °F 77% 30.30 in 10.0 mi ESE 6.9 mph - N/A   Clear
7:35 AM -15.0 °F -31.0 °F -19.1 °F 82% 30.31 in 10.0 mi SE 6.9 mph - N/A   Clear
7:55 AM -14.4 °F -26.7 °F -18.9 °F 80% 30.32 in 10.0 mi SE 4.6 mph - N/A   Clear
8:15 AM -10.7 °F -24.2 °F -14.3 °F 84% 30.33 in 10.0 mi ESE 5.8 mph - N/A   Clear
8:35 AM -4.9 °F -13.4 °F -8.1 °F 86% 30.33 in 10.0 mi ESE 3.5 mph - N/A   Clear
8:55 AM -1.8 °F - -4.7 °F 88% 30.35 in 10.0 mi Calm Calm - N/A   Clear
9:15 AM 3.0 °F - -0.0 °F 87% 30.36 in 10.0 mi Calm Calm - N/A   Clear
9:35 AM 2.8 °F - -1.1 °F 84% 30.37 in 10.0 mi Calm Calm - N/A   Clear
9:55 AM 4.5 °F - 1.2 °F 86% 30.38 in 10.0 mi Calm Calm - N/A   Clear
10:15 AM 8.2 °F - 4.6 °F 85% 30.39 in 10.0 mi Calm Calm - N/A   Clear
10:35 AM 10.9 °F 4.7 °F 6.4 °F 82% 30.40 in 10.0 mi SE 3.5 mph - N/A   Clear
10:55 AM 13.3 °F - 6.6 °F 75% 30.40 in 10.0 mi Calm Calm - N/A   Clear
11:15 AM 14.9 °F 9.2 °F 7.3 °F 72% 30.40 in 10.0 mi NE 3.5 mph - N/A   Clear
11:35 AM 16.9 °F - 8.8 °F 71% 30.41 in 10.0 mi Calm Calm - N/A   Clear
11:55 AM 20.5 °F 15.6 °F 9.1 °F 62% 30.40 in 10.0 mi NW 3.5 mph - N/A   Clear
12:15 PM 22.5 °F 13.2 °F 10.2 °F 59% 30.40 in 10.0 mi SSE 8.1 mph - N/A   Clear
12:35 PM 21.9 °F 15.7 °F 12.0 °F 66% 30.40 in 10.0 mi SSE 4.6 mph - N/A   Clear
12:55 PM 22.6 °F - 10.4 °F 59% 30.39 in 10.0 mi Calm Calm - N/A   Clear
1:15 PM 24.3 °F 18.4 °F 11.5 °F 58% 30.39 in 10.0 mi SSE 4.6 mph - N/A   Clear
1:35 PM 24.4 °F 17.5 °F 12.2 °F 60% 30.40 in 10.0 mi South 5.8 mph - N/A   Clear
1:55 PM 24.6 °F - 11.3 °F 57% 30.39 in 10.0 mi Calm Calm - N/A   Clear
2:15 PM 25.0 °F 18.1 °F 11.3 °F 56% 30.39 in 10.0 mi SSE 5.8 mph - N/A   Clear
2:35 PM 24.8 °F - 10.9 °F 56% 30.40 in 10.0 mi Calm Calm - N/A   Clear
2:55 PM 24.3 °F - 9.7 °F 54% 30.40 in 10.0 mi Calm Calm - N/A   Clear
3:15 PM 24.8 °F - 9.9 °F 53% 30.40 in 10.0 mi Calm Calm - N/A   Clear
3:35 PM 24.4 °F 20.1 °F 9.9 °F 54% 30.40 in 10.0 mi ENE 3.5 mph - N/A   Clear
3:55 PM 23.7 °F 19.3 °F 10.0 °F 56% 30.41 in 10.0 mi SSE 3.5 mph - N/A   Clear
4:15 PM 23.9 °F 19.5 °F 10.4 °F 56% 30.40 in 10.0 mi ENE 3.5 mph - N/A   Clear
4:35 PM 23.0 °F - 9.9 °F 57% 30.40 in 10.0 mi Calm Calm - N/A   Clear
4:55 PM 22.1 °F 17.4 °F 9.9 °F 59% 30.40 in 10.0 mi North 3.5 mph - N/A   Clear
5:15 PM 19.2 °F - 9.3 °F 65% 30.41 in 10.0 mi Calm Calm - N/A   Clear
5:35 PM 14.9 °F - 7.9 °F 74% 30.41 in 10.0 mi Calm Calm - N/A   Clear
5:55 PM 10.8 °F - 5.2 °F 78% 30.41 in 10.0 mi Calm Calm - N/A   Clear
6:15 PM 6.1 °F -0.9 °F 1.9 °F 83% 30.42 in 10.0 mi SSE 3.5 mph - N/A   Clear
6:35 PM 2.7 °F - -0.4 °F 87% 30.42 in 10.0 mi Calm Calm - N/A   Clear
6:55 PM 2.7 °F -6.8 °F -0.6 °F 86% 30.43 in 10.0 mi SE 4.6 mph - N/A   Clear
7:15 PM 0.1 °F -7.7 °F -3.3 °F 85% 30.43 in 10.0 mi SE 3.5 mph - N/A   Clear
7:35 PM -1.5 °F - -4.5 °F 87% 30.43 in 10.0 mi Calm Calm - N/A   Clear
7:55 PM -1.5 °F -11.6 °F -4.4 °F 88% 30.43 in 10.0 mi ESE 4.6 mph - N/A   Clear
8:15 PM -0.2 °F - -3.1 °F 88% 30.44 in 10.0 mi Calm Calm - N/A   Clear
8:35 PM 0.1 °F - -3.3 °F 85% 30.44 in 10.0 mi Calm Calm - N/A   Clear
8:55 PM -1.5 °F -9.5 °F -4.4 °F 88% 30.45 in 10.0 mi East 3.5 mph - N/A   Clear
9:15 PM -3.1 °F - -6.5 °F 85% 30.45 in 10.0 mi Calm Calm - N/A   Clear
9:35 PM -2.9 °F -15.0 °F -6.0 °F 87% 30.46 in 10.0 mi ESE 5.8 mph - N/A   Clear
9:55 PM -5.3 °F -17.8 °F -8.7 °F 85% 30.46 in 10.0 mi SE 5.8 mph - N/A   Clear
10:15 PM -5.8 °F -16.7 °F -9.0 °F 86% 30.46 in 10.0 mi ESE 4.6 mph - N/A   Clear
10:35 PM -5.6 °F -16.5 °F -9.0 °F 85% 30.47 in 10.0 mi East 4.6 mph - N/A   Clear
10:55 PM -4.4 °F -15.0 °F -7.6 °F 86% 30.48 in 10.0 mi East 4.6 mph - N/A   Clear
11:15 PM -4.7 °F - -8.0 °F 86% 30.48 in 10.0 mi Calm Calm - N/A   Clear
11:35 PM -7.1 °F -19.9 °F -11.4 °F 81% 30.48 in 10.0 mi SE 5.8 mph - N/A   Clear
11:55 PM -4.5 °F -15.2 °F -8.1 °F 84% 30.48 in 10.0 mi East 4.6 mph - N/A   Clear